TimeMST,TemperatureF,Dew PointF,Humidity,Sea Level PressureIn,VisibilityMPH,Wind Direction,Wind SpeedMPH,Gust SpeedMPH,PrecipitationIn,Events,Conditions,WindDirDegrees,DateUTC
12:15 AM,23.0,21.2,93,29.90,9.0,Calm,Calm,-,N/A,,Clear,0,2012-11-18 07:15:00
12:55 AM,23.0,21.2,93,29.89,10.0,Calm,Calm,-,N/A,,Clear,0,2012-11-18 07:55:00
1:15 AM,21.2,21.2,100,29.88,9.0,Calm,Calm,-,N/A,,Clear,0,2012-11-18 08:15:00
1:35 AM,21.2,17.6,86,29.87,10.0,Calm,Calm,-,N/A,,Clear,0,2012-11-18 08:35:00
1:55 AM,19.4,15.8,86,29.87,10.0,Calm,Calm,-,N/A,,Clear,0,2012-11-18 08:55:00
2:15 AM,21.2,19.4,93,29.86,10.0,WNW,3.5,-,N/A,,Clear,290,2012-11-18 09:15:00
2:35 AM,23.0,21.2,93,29.85,10.0,Calm,Calm,-,N/A,,Clear,0,2012-11-18 09:35:00
2:55 AM,21.2,19.4,93,29.84,10.0,Calm,Calm,-,N/A,,Clear,0,2012-11-18 09:55:00
3:15 AM,21.2,17.6,86,29.83,10.0,Calm,Calm,-,N/A,,Clear,0,2012-11-18 10:15:00
3:35 AM,19.4,17.6,93,29.83,10.0,Calm,Calm,-,N/A,,Clear,0,2012-11-18 10:35:00
3:55 AM,21.2,17.6,86,29.82,10.0,Calm,Calm,-,N/A,,Clear,0,2012-11-18 10:55:00
4:15 AM,21.2,17.6,86,29.81,10.0,Calm,Calm,-,N/A,,Clear,0,2012-11-18 11:15:00
4:35 AM,21.2,17.6,86,29.81,10.0,Calm,Calm,-,N/A,,Clear,0,2012-11-18 11:35:00
4:55 AM,21.2,15.8,80,29.81,10.0,Calm,Calm,-,N/A,,Clear,0,2012-11-18 11:55:00
5:15 AM,21.2,17.6,86,29.80,10.0,Calm,Calm,-,N/A,,Clear,0,2012-11-18 12:15:00
5:35 AM,21.2,17.6,86,29.80,10.0,Calm,Calm,-,N/A,,Clear,0,2012-11-18 12:35:00
5:55 AM,21.2,17.6,86,29.80,10.0,Calm,Calm,-,N/A,,Clear,0,2012-11-18 12:55:00
6:15 AM,21.2,19.4,93,29.79,10.0,NNW,3.5,-,N/A,,Clear,340,2012-11-18 13:15:00
6:35 AM,24.8,21.2,86,29.79,10.0,Calm,Calm,-,N/A,,Clear,0,2012-11-18 13:35:00
6:55 AM,21.2,15.8,80,29.79,10.0,North,3.5,-,N/A,,Clear,350,2012-11-18 13:55:00
7:15 AM,21.2,15.8,80,29.78,10.0,Calm,Calm,-,N/A,,Clear,0,2012-11-18 14:15:00
7:35 AM,24.8,21.2,86,29.79,10.0,Calm,Calm,-,N/A,,Clear,0,2012-11-18 14:35:00
7:55 AM,24.8,21.2,86,29.79,10.0,Calm,Calm,-,N/A,,Clear,0,2012-11-18 14:55:00
8:15 AM,24.8,19.4,80,29.79,10.0,Calm,Calm,-,N/A,,Clear,0,2012-11-18 15:15:00
8:35 AM,28.4,26.6,93,29.78,10.0,Calm,Calm,-,N/A,,Clear,0,2012-11-18 15:35:00
8:55 AM,30.2,26.6,86,29.79,10.0,Calm,Calm,-,N/A,,Clear,0,2012-11-18 15:55:00
10:15 AM,33.8,26.6,75,29.78,10.0,Calm,Calm,-,N/A,,Clear,0,2012-11-18 17:15:00
10:35 AM,35.6,28.4,75,29.77,10.0,SSW,3.5,-,N/A,,Clear,210,2012-11-18 17:35:00
10:56 AM,37.4,30.2,75,29.77,10.0,SSW,6.9,-,N/A,,Clear,200,2012-11-18 17:56:00
11:15 AM,39.2,30.2,70,29.77,10.0,SSW,8.1,-,N/A,,Clear,210,2012-11-18 18:15:00
11:35 AM,41.0,32.0,70,29.77,10.0,SW,5.8,-,N/A,,Clear,230,2012-11-18 18:35:00
11:55 AM,42.8,33.8,70,29.77,10.0,SSW,3.5,-,N/A,,Clear,210,2012-11-18 18:55:00
12:15 PM,44.6,33.8,66,29.76,10.0,South,3.5,-,N/A,,Clear,190,2012-11-18 19:15:00
12:35 PM,44.6,33.8,66,29.77,10.0,South,5.8,-,N/A,,Clear,180,2012-11-18 19:35:00
12:55 PM,44.6,33.8,66,29.77,10.0,SSW,3.5,-,N/A,,Clear,210,2012-11-18 19:55:00
1:15 PM,42.8,33.8,70,29.76,10.0,SW,5.8,-,N/A,,Clear,220,2012-11-18 20:15:00
1:55 PM,44.6,33.8,66,29.76,10.0,South,3.5,-,N/A,,Clear,190,2012-11-18 20:55:00
2:15 PM,42.8,33.8,70,29.78,10.0,Calm,Calm,-,N/A,,Mostly Cloudy,0,2012-11-18 21:15:00
2:35 PM,42.8,33.8,70,29.79,10.0,Calm,Calm,-,N/A,,Overcast,0,2012-11-18 21:35:00
2:55 PM,42.8,33.8,70,29.79,10.0,Calm,Calm,-,N/A,,Mostly Cloudy,0,2012-11-18 21:55:00
3:35 PM,39.2,33.8,81,29.82,10.0,SW,4.6,-,N/A,,Overcast,220,2012-11-18 22:35:00
3:55 PM,39.2,33.8,81,29.84,10.0,Calm,Calm,-,N/A,,Mostly Cloudy,0,2012-11-18 22:55:00
4:15 PM,39.2,33.8,81,29.85,10.0,WNW,5.8,-,N/A,,Partly Cloudy,290,2012-11-18 23:15:00
4:35 PM,42.8,33.8,70,29.86,10.0,NW,11.5,-,N/A,,Scattered Clouds,310,2012-11-18 23:35:00
4:55 PM,42.8,32.0,66,29.86,10.0,WNW,16.1,-,N/A,,Scattered Clouds,300,2012-11-18 23:55:00
5:15 PM,42.8,30.2,61,29.87,10.0,NW,15.0,20.7,N/A,,Mostly Cloudy,310,2012-11-19 00:15:00
5:35 PM,42.8,30.2,61,29.88,10.0,NW,11.5,-,N/A,,Overcast,310,2012-11-19 00:35:00
5:55 PM,42.8,30.2,61,29.89,10.0,NNW,5.8,-,N/A,,Overcast,330,2012-11-19 00:55:00
6:15 PM,42.8,28.4,57,29.90,10.0,NW,3.5,-,N/A,,Overcast,310,2012-11-19 01:15:00
6:35 PM,39.2,28.4,65,29.91,10.0,Calm,Calm,-,N/A,,Overcast,0,2012-11-19 01:35:00
6:55 PM,39.2,30.2,70,29.92,10.0,NNW,4.6,-,N/A,,Overcast,330,2012-11-19 01:55:00
7:15 PM,39.2,28.4,65,29.93,10.0,WNW,5.8,-,N/A,,Overcast,300,2012-11-19 02:15:00
7:35 PM,39.2,30.2,70,29.93,10.0,WNW,9.2,-,N/A,,Mostly Cloudy,290,2012-11-19 02:35:00
7:55 PM,37.4,28.4,70,29.94,10.0,WNW,8.1,-,N/A,,Partly Cloudy,290,2012-11-19 02:55:00
8:15 PM,37.4,28.4,70,29.95,10.0,South,6.9,-,N/A,,Clear,170,2012-11-19 03:15:00
8:35 PM,35.6,28.4,75,29.96,10.0,WSW,9.2,-,N/A,,Mostly Cloudy,240,2012-11-19 03:35:00
8:55 PM,37.4,28.4,70,29.96,10.0,West,8.1,-,N/A,,Mostly Cloudy,280,2012-11-19 03:55:00
9:35 PM,39.2,28.4,65,29.98,10.0,West,11.5,-,N/A,,Overcast,280,2012-11-19 04:35:00
10:15 PM,37.4,28.4,70,29.99,10.0,West,9.2,-,N/A,,Overcast,280,2012-11-19 05:15:00
10:55 PM,37.4,28.4,70,29.99,10.0,WNW,13.8,-,N/A,,Scattered Clouds,300,2012-11-19 05:55:00
11:15 PM,35.6,28.4,75,30.00,10.0,WNW,16.1,-,N/A,,Clear,300,2012-11-19 06:15:00
11:35 PM,35.6,26.6,70,30.00,10.0,WNW,13.8,-,N/A,,Clear,290,2012-11-19 06:35:00
11:55 PM,35.6,26.6,70,30.03,10.0,WNW,8.1,-,N/A,,Partly Cloudy,290,2012-11-19 06:55:00